Regional Weather Roundup
Issued by NWS Newport/Morehead, NC

Current Version | Previous Version | Graphics & Text | Print | Product List | Glossary Off
Versions: 1 2 3 4 5 6 7 8 9 10 11 12 13 14 15 16 17 18 19 20 21 22 23 24 25 26 27 28 29 30 31 32 33 34 35 36 37 38 39 40 41 42 43 44 45 46 47 48 49 50
000 ASUS42 KMHX 240110 RWRMHX WEATHER ROUNDUP FOR EASTERN NORTH CAROLINA NATIONAL WEATHER SERVICE NEWPORT/MOREHEAD CITY NC 800 PM EST SUN NOV 23 2014 NOTE: "FAIR" INDICATES FEW OR NO CLOUDS BELOW 12,000 FEET WITH NO SIGNIFICANT WEATHER AND/OR OBSTRUCTIONS TO VISIBILITY NCZ015>017-031-032-045>047-102-103-240200- NORTH COAST CITY SKY/WX TMP DP RH WIND PRES REMARKS EDENTON CLOUDY 61 58 91 SE8 29.99F ELIZABETH CITY CLOUDY 58 54 86 E6 30.01F KITTY HAWK CLOUDY 65 59 81 SE12G22 30.01F MANTEO CLOUDY 64 58 82 S15G22 30.03S $$ NCZ045>047-081-094-103-104-240200- CENTRAL COAST CITY SKY/WX TMP DP RH WIND PRES REMARKS FRISCO LGT RAIN 66 62 87 S24G33 30.02F SWANQUARTER N/A 61 N/A N/A SE12G23 29.94F $$ NCZ095-097-098-100-101-240200- SOUTHERN COAST CITY SKY/WX TMP DP RH WIND PRES REMARKS BEAUFORT CLOUDY 67 63 87 SE17G35 29.97F CEDAR ISLAND N/A 64 N/A N/A SE23 30.00F JACKSONVILLE RAIN 67 64 90 SE22G28 29.94F FOG PINEY ISLAND MOCLDY 70 62 76 SE15G25 29.97F WILMINGTON LGT RAIN 66 63 90 SE16G24 29.93F $$ NCZ011>013-027>030-043-044-078>080-089-090>093-098-240200- COASTAL PLAIN CITY SKY/WX TMP DP RH WIND PRES REMARKS AHOSKIE CLOUDY 56 55 96 E5 29.97F CLINTON HVY RAIN 64 64 100 S7 29.92F ELIZABETHTOWN LGT RAIN 64 63 98 SE12G17 29.92S GOLDSBORO CLOUDY 63 63 100 SE9 29.90F GREENVILLE MOCLDY 61 59 94 SE5 29.97F HAVELOCK CLOUDY 68 63 84 SE18G26 29.97F KENANSVILLE CLOUDY 64 63 97 SE5 29.93F KINSTON CLOUDY 64 63 94 SE8 29.94 NEW BERN CLOUDY 68 62 81 SE10G18 29.97F RICHLANDS CLOUDY 66 61 82 SE13G23 29.94F ROCKY MOUNT CLOUDY 62 60 93 SE7 29.93F WASHINGTON CLOUDY 61 58 92 SE9 29.96F WHITEVILLE NOT AVBL $$ AMZ130-135-150-152-154-156-158-170-250-252-270-ANZ085-086-088-633-658-670-240200- MARINE OBSERVATIONS STATION/POSITION TIME TEMP WIND PRES WAVE SWELL AIR SEA DIR/SP/G HT/PER HT/PER (UTC) (F) (DEG/KT/KT) (MB) (FT/S) (FT/S) CHESAPEAKE LIGHT 0000 60 130/ 19/ 19 1018.0 64 E VA BEACH 0100 66 64 150/ 16/ 17 1017.2 4/ 5 2/ 8 DUCK 0100 59 55 150/ 10/ 11 1015.8 2 E DUCK 0100 56 N/A 3/ 5 10 NE DUCK 0100 57 N/A 4/ 5 OREGON INLET 0100 63 52 140/ 12/ 16 1016.5 13E OREGON INLT 0100 65 N/A 7/ 6 HATTERAS CG 0100 68 58 160/ 21/ 28 1016.5 DIAMOND BUOY 0100 71 150/ 25/ 31 1016.2 6/ 6 17 S OCRACOKE NOT AVBL CAPE LOOKOUT 0000 66 140/ 23/ 24 1015.4 BEAUFORT LAB 0100 66 56 150/ 14/ 19 1013.8 30 SE NEW RIVER 0100 71 70 150/ 31/ 37 1012.2 11/ 8 5 SE WRIGHTSVLE 0000 62 60 150/ 21/ 25 1012.9 225 S CAPE HAT 0007 72 73 130/ 25/ 31 1017.9 8/ 7 2/11 41 SE CHARLESTON 0100 76 75 170/ 10/ 14 1010.8 12/10 11/10 $$

USA.gov is the U.S. government's official web portal to all federal, state and local government web resources and services.